Time,TemperatureF,DewpointF,PressureIn,WindDirection,WindDirectionDegrees,WindSpeedMPH,WindSpeedGustMPH,Humidity,HourlyPrecipIn,Conditions,Clouds,dailyrainin,SoftwareType,DateUTC
2013-03-03 00:00:00,18.4,14.9,30.29,WNW,297,0.0,0.0,86,0.00,,SKC,0.00,VWS V12.07,2013-03-03 06:00:00,
2013-03-03 00:06:00,18.3,14.6,30.29,WNW,296,0.0,0.0,85,0.00,,SKC,0.00,VWS V12.07,2013-03-03 06:06:00,
2013-03-03 00:14:00,17.6,13.9,30.29,WNW,297,0.0,0.0,85,0.00,,SKC,0.00,VWS V12.07,2013-03-03 06:14:00,
2013-03-03 00:20:00,16.8,13.1,30.29,WNW,297,0.0,0.0,85,0.00,,SKC,0.00,VWS V12.07,2013-03-03 06:20:00,
2013-03-03 00:26:00,16.5,13.3,30.29,WNW,297,0.0,0.0,87,0.00,,SKC,0.00,VWS V12.07,2013-03-03 06:26:00,
2013-03-03 00:31:00,16.5,13.6,30.29,WNW,296,0.0,0.0,88,0.00,,SKC,0.00,VWS V12.07,2013-03-03 06:31:00,
2013-03-03 00:36:00,16.6,13.9,30.29,WNW,296,0.0,0.0,89,0.00,,SKC,0.00,VWS V12.07,2013-03-03 06:36:00,
2013-03-03 00:45:00,16.9,14.2,30.29,WNW,297,0.0,0.0,89,0.00,,SKC,0.00,VWS V12.07,2013-03-03 06:45:00,
2013-03-03 00:54:00,16.3,13.4,30.29,WNW,297,0.0,0.0,88,0.00,,SKC,0.00,VWS V12.07,2013-03-03 06:54:00,
2013-03-03 01:00:00,16.3,13.6,30.29,WNW,297,0.0,0.0,89,0.00,,SKC,0.00,VWS V12.07,2013-03-03 07:00:00,
2013-03-03 01:06:00,16.2,13.8,30.29,WNW,297,0.0,0.0,90,0.00,,SKC,0.00,VWS V12.07,2013-03-03 07:06:00,
2013-03-03 01:11:00,16.0,13.3,30.30,WNW,297,0.0,0.0,89,0.00,,SKC,0.00,VWS V12.07,2013-03-03 07:11:00,
2013-03-03 01:17:00,15.6,12.9,30.29,WNW,296,0.0,0.0,89,0.00,,SKC,0.00,VWS V12.07,2013-03-03 07:17:00,
2013-03-03 01:24:00,15.5,13.1,30.29,WNW,297,0.0,0.0,90,0.00,,SKC,0.00,VWS V12.07,2013-03-03 07:24:00,
2013-03-03 01:30:00,15.6,13.4,30.29,WNW,297,0.0,0.0,91,0.00,,SKC,0.00,VWS V12.07,2013-03-03 07:30:00,
2013-03-03 01:36:00,15.5,13.1,30.29,WNW,297,1.0,1.0,90,0.00,,SKC,0.00,VWS V12.07,2013-03-03 07:36:00,
2013-03-03 01:41:00,15.8,13.9,30.29,West,277,0.0,1.0,92,0.00,,SKC,0.00,VWS V12.07,2013-03-03 07:41:00,
2013-03-03 01:47:00,16.0,13.8,30.29,West,277,0.0,1.0,91,0.00,,SKC,0.00,VWS V12.07,2013-03-03 07:47:00,
2013-03-03 01:54:00,15.8,13.4,30.29,West,277,0.0,1.0,90,0.00,,SKC,0.00,VWS V12.07,2013-03-03 07:54:00,
2013-03-03 02:00:00,15.3,12.9,30.28,West,277,0.0,1.0,90,0.00,,SKC,0.00,VWS V12.07,2013-03-03 08:00:00,
2013-03-03 02:06:00,15.3,13.1,30.28,West,277,0.0,0.0,91,0.00,,SKC,0.00,VWS V12.07,2013-03-03 08:06:00,
2013-03-03 02:11:00,15.2,13.1,30.28,West,277,0.0,0.0,91,0.00,,SKC,0.00,VWS V12.07,2013-03-03 08:11:00,
2013-03-03 02:17:00,14.9,12.8,30.28,West,277,0.0,0.0,91,0.00,,SKC,0.00,VWS V12.07,2013-03-03 08:17:00,
2013-03-03 02:24:00,14.9,13.0,30.27,SSW,204,0.0,0.0,92,0.00,,SKC,0.00,VWS V12.07,2013-03-03 08:24:00,
2013-03-03 02:30:00,15.1,13.2,30.27,SSW,203,0.0,0.0,92,0.00,,SKC,0.00,VWS V12.07,2013-03-03 08:30:00,
2013-03-03 02:36:00,15.0,13.1,30.27,SSW,203,0.0,0.0,92,0.00,,SKC,0.00,VWS V12.07,2013-03-03 08:36:00,
2013-03-03 02:41:00,14.8,12.9,30.27,SSW,203,0.0,0.0,92,0.00,,SKC,0.00,VWS V12.07,2013-03-03 08:41:00,
2013-03-03 02:47:00,14.8,12.9,30.26,SSW,203,0.0,0.0,92,0.00,,SKC,0.00,VWS V12.07,2013-03-03 08:47:00,
2013-03-03 02:54:00,14.8,12.9,30.26,SSW,203,0.0,0.0,92,0.00,,SKC,0.00,VWS V12.07,2013-03-03 08:54:00,
2013-03-03 03:00:00,14.7,12.8,30.26,SSW,203,0.0,0.0,92,0.00,,SKC,0.00,VWS V12.07,2013-03-03 09:00:00,
2013-03-03 03:06:00,14.6,12.7,30.26,SSW,203,0.0,0.0,92,0.00,,SKC,0.00,VWS V12.07,2013-03-03 09:06:00,
2013-03-03 03:11:00,14.5,12.6,30.25,SSW,203,0.0,0.0,92,0.00,,SKC,0.00,VWS V12.07,2013-03-03 09:11:00,
2013-03-03 03:17:00,14.9,13.2,30.26,SSW,203,0.0,0.0,93,0.00,,SKC,0.00,VWS V12.07,2013-03-03 09:17:00,
2013-03-03 03:24:00,14.9,13.2,30.25,SSW,203,0.0,0.0,93,0.00,,SKC,0.00,VWS V12.07,2013-03-03 09:24:00,
2013-03-03 03:33:00,15.1,13.2,30.25,West,279,0.0,0.0,92,0.00,,SKC,0.00,VWS V12.07,2013-03-03 09:33:00,
2013-03-03 03:40:00,15.1,13.2,30.25,West,280,0.0,0.0,92,0.00,,SKC,0.00,VWS V12.07,2013-03-03 09:40:00,
2013-03-03 03:46:00,15.1,13.2,30.25,West,278,0.0,0.0,92,0.00,,SKC,0.00,VWS V12.07,2013-03-03 09:46:00,
2013-03-03 03:51:00,14.8,12.9,30.25,West,280,0.0,0.0,92,0.00,,SKC,0.00,VWS V12.07,2013-03-03 09:51:00,
2013-03-03 03:57:00,14.7,12.8,30.24,West,278,0.0,0.0,92,0.00,,SKC,0.00,VWS V12.07,2013-03-03 09:57:00,
2013-03-03 04:04:00,14.8,13.1,30.24,WSW,250,0.0,0.0,93,0.00,,SKC,0.00,VWS V12.07,2013-03-03 10:04:00,
2013-03-03 04:10:00,14.8,13.1,30.25,WSW,250,0.0,0.0,93,0.00,,SKC,0.00,VWS V12.07,2013-03-03 10:10:00,
2013-03-03 04:16:00,15.0,13.3,30.24,WSW,250,0.0,0.0,93,0.00,,SKC,0.00,VWS V12.07,2013-03-03 10:16:00,
2013-03-03 04:21:00,15.2,13.5,30.24,WSW,250,0.0,0.0,93,0.00,,SKC,0.00,VWS V12.07,2013-03-03 10:21:00,
2013-03-03 04:27:00,15.2,13.5,30.24,WSW,250,0.0,0.0,93,0.00,,SKC,0.00,VWS V12.07,2013-03-03 10:27:00,
2013-03-03 04:34:00,15.0,13.1,30.24,WSW,250,0.0,0.0,92,0.00,,SKC,0.00,VWS V12.07,2013-03-03 10:34:00,
2013-03-03 04:40:00,15.5,13.8,30.23,ESE,114,0.0,0.0,93,0.00,,SKC,0.00,VWS V12.07,2013-03-03 10:40:00,
2013-03-03 04:46:00,15.4,13.7,30.24,ESE,120,0.0,0.0,93,0.00,,SKC,0.00,VWS V12.07,2013-03-03 10:46:00,
2013-03-03 04:54:00,15.4,13.5,30.23,ESE,120,0.0,0.0,92,0.00,,SKC,0.00,VWS V12.07,2013-03-03 10:54:00,
2013-03-03 05:00:00,15.4,13.5,30.23,ESE,120,0.0,0.0,92,0.00,,SKC,0.00,VWS V12.07,2013-03-03 11:00:00,
2013-03-03 05:06:00,15.4,13.5,30.23,ESE,120,0.0,0.0,92,0.00,,SKC,0.00,VWS V12.07,2013-03-03 11:06:00,
2013-03-03 05:14:00,15.1,13.2,30.23,ESE,120,0.0,0.0,92,0.00,,SKC,0.00,VWS V12.07,2013-03-03 11:14:00,
2013-03-03 05:19:00,14.9,12.8,30.23,ESE,120,0.0,0.0,91,0.00,,SKC,0.00,VWS V12.07,2013-03-03 11:19:00,
2013-03-03 05:26:00,14.8,12.6,30.23,ESE,120,0.0,0.0,91,0.00,,SKC,0.00,VWS V12.07,2013-03-03 11:26:00,
2013-03-03 05:34:00,14.6,12.5,30.23,ESE,120,0.0,0.0,91,0.00,,SKC,0.00,VWS V12.07,2013-03-03 11:34:00,
2013-03-03 05:40:00,14.7,12.6,30.23,ESE,120,0.0,0.0,91,0.00,,SKC,0.00,VWS V12.07,2013-03-03 11:40:00,
2013-03-03 05:46:00,14.8,12.6,30.22,SSE,150,0.0,1.0,91,0.00,,SKC,0.00,VWS V12.07,2013-03-03 11:46:00,
2013-03-03 05:51:00,14.9,13.0,30.22,SE,143,0.0,1.0,92,0.00,,SKC,0.00,VWS V12.07,2013-03-03 11:51:00,
2013-03-03 05:56:00,15.0,13.1,30.23,SE,143,0.0,1.0,92,0.00,,SKC,0.00,VWS V12.07,2013-03-03 11:56:00,
2013-03-03 06:04:00,15.2,13.3,30.23,SE,146,0.0,0.0,92,0.00,,SKC,0.00,VWS V12.07,2013-03-03 12:04:00,
2013-03-03 06:10:00,15.2,13.1,30.23,SE,146,0.0,0.0,91,0.00,,SKC,0.00,VWS V12.07,2013-03-03 12:10:00,
2013-03-03 06:16:00,15.2,13.1,30.23,SE,146,0.0,0.0,91,0.00,,SKC,0.00,VWS V12.07,2013-03-03 12:16:00,
2013-03-03 06:24:00,15.2,13.1,30.22,SE,146,0.0,0.0,91,0.00,,SKC,0.00,VWS V12.07,2013-03-03 12:24:00,
2013-03-03 06:30:00,15.3,13.1,30.22,SE,146,0.0,0.0,91,0.00,,SKC,0.00,VWS V12.07,2013-03-03 12:30:00,
2013-03-03 06:38:00,15.5,13.6,30.23,East,82,0.0,0.0,92,0.00,,SKC,0.00,VWS V12.07,2013-03-03 12:38:00,
2013-03-03 06:46:00,15.9,14.0,30.22,ESE,109,0.0,2.0,92,0.00,,SKC,0.00,VWS V12.07,2013-03-03 12:46:00,
2013-03-03 06:54:00,16.1,14.2,30.22,ESE,113,0.0,2.0,92,0.00,,SKC,0.00,VWS V12.07,2013-03-03 12:54:00,
2013-03-03 07:03:00,16.3,14.4,30.23,ESE,115,0.0,0.0,92,0.00,,SKC,0.00,VWS V12.07,2013-03-03 13:03:00,
2013-03-03 07:10:00,16.4,14.2,30.23,ESE,115,0.0,0.0,91,0.00,,SKC,0.00,VWS V12.07,2013-03-03 13:10:00,
2013-03-03 07:18:00,16.7,14.5,30.23,ESE,114,0.0,0.0,91,0.00,,SKC,0.00,VWS V12.07,2013-03-03 13:18:00,
2013-03-03 07:27:00,17.1,15.2,30.23,ESE,115,0.0,0.0,92,0.00,,SKC,0.00,VWS V12.07,2013-03-03 13:27:00,
2013-03-03 07:34:00,17.7,15.8,30.23,ESE,115,0.0,0.0,92,0.00,,SKC,0.00,VWS V12.07,2013-03-03 13:34:00,
2013-03-03 07:40:00,18.2,16.3,30.23,ESE,114,0.0,0.0,92,0.00,,SKC,0.00,VWS V12.07,2013-03-03 13:40:00,
2013-03-03 07:46:00,18.8,16.6,30.23,ESE,115,0.0,0.0,91,0.00,,SKC,0.00,VWS V12.07,2013-03-03 13:46:00,
2013-03-03 07:54:00,19.8,17.9,30.23,ESE,114,0.0,0.0,92,0.00,,SKC,0.00,VWS V12.07,2013-03-03 13:54:00,
2013-03-03 07:59:00,20.2,18.0,30.23,SSE,165,0.0,0.0,91,0.00,,SKC,0.00,VWS V12.07,2013-03-03 13:59:00,
2013-03-03 08:06:00,20.5,18.0,30.24,SSE,147,0.0,0.0,90,0.00,,SKC,0.00,VWS V12.07,2013-03-03 14:06:00,
2013-03-03 08:14:00,20.8,18.3,30.24,SSE,158,0.0,0.0,90,0.00,,SKC,0.00,VWS V12.07,2013-03-03 14:14:00,
2013-03-03 08:20:00,21.1,18.4,30.24,SSW,194,0.0,0.0,89,0.00,,SKC,0.00,VWS V12.07,2013-03-03 14:20:00,
2013-03-03 08:26:00,21.5,18.8,30.23,South,190,0.0,1.0,89,0.00,,SKC,0.00,VWS V12.07,2013-03-03 14:26:00,
2013-03-03 08:31:00,22.0,19.3,30.24,South,186,2.0,2.0,89,0.00,,SKC,0.00,VWS V12.07,2013-03-03 14:31:00,
2013-03-03 08:38:00,22.1,18.8,30.24,South,184,0.0,2.0,87,0.00,,SKC,0.00,VWS V12.07,2013-03-03 14:38:00,
2013-03-03 08:46:00,22.5,19.0,30.24,SSW,207,1.0,3.0,86,0.00,,SKC,0.00,VWS V12.07,2013-03-03 14:46:00,
2013-03-03 08:54:00,23.0,19.2,30.24,SSW,212,2.0,4.0,85,0.00,,SKC,0.00,VWS V12.07,2013-03-03 14:54:00,
2013-03-03 09:00:00,23.6,19.8,30.24,SW,224,1.0,4.0,85,0.00,,SKC,0.00,VWS V12.07,2013-03-03 15:00:00,
2013-03-03 09:08:00,24.1,19.7,30.24,SSE,167,0.0,4.0,83,0.00,,SKC,0.00,VWS V12.07,2013-03-03 15:08:00,
2013-03-03 09:16:00,24.6,19.9,30.24,South,183,1.0,4.0,82,0.00,,SKC,0.00,VWS V12.07,2013-03-03 15:16:00,
2013-03-03 09:24:00,24.8,19.8,30.24,South,176,2.0,4.0,81,0.00,,SKC,0.00,VWS V12.07,2013-03-03 15:24:00,
2013-03-03 09:29:00,25.1,20.1,30.24,SSE,159,0.0,4.0,81,0.00,,SKC,0.00,VWS V12.07,2013-03-03 15:29:00,
2013-03-03 09:36:00,25.4,19.8,30.24,West,259,0.0,4.0,79,0.00,,SKC,0.00,VWS V12.07,2013-03-03 15:36:00,
2013-03-03 09:44:00,25.8,20.2,30.23,East,96,0.0,4.0,79,0.00,,SKC,0.00,VWS V12.07,2013-03-03 15:44:00,
2013-03-03 09:50:00,26.2,20.3,30.23,SE,143,3.0,4.0,78,0.00,,SKC,0.00,VWS V12.07,2013-03-03 15:50:00,
2013-03-03 09:59:00,26.3,20.4,30.22,SE,136,5.0,6.0,78,0.00,,SKC,0.00,VWS V12.07,2013-03-03 15:59:00,
2013-03-03 10:06:00,26.5,20.3,30.22,South,172,4.0,6.0,77,0.00,,SKC,0.00,VWS V12.07,2013-03-03 16:06:00,
2013-03-03 10:11:00,26.7,20.2,30.22,SE,143,4.0,6.0,76,0.00,,SKC,0.00,VWS V12.07,2013-03-03 16:11:00,
2013-03-03 10:16:00,26.8,20.3,30.22,ESE,104,2.0,6.0,76,0.00,,SKC,0.00,VWS V12.07,2013-03-03 16:16:00,
2013-03-03 10:24:00,27.2,21.0,30.22,SSE,157,1.0,6.0,77,0.00,,SKC,0.00,VWS V12.07,2013-03-03 16:24:00,
2013-03-03 10:33:00,28.6,21.7,30.22,SSE,150,2.0,4.0,75,0.00,,SKC,0.00,VWS V12.07,2013-03-03 16:33:00,
2013-03-03 10:40:00,29.3,21.7,30.22,SW,236,0.0,5.0,73,0.00,,SKC,0.00,VWS V12.07,2013-03-03 16:40:00,
2013-03-03 10:48:00,30.0,22.4,30.22,South,179,1.0,5.0,73,0.00,,SKC,0.00,VWS V12.07,2013-03-03 16:48:00,
2013-03-03 10:56:00,30.8,22.9,30.21,SE,128,1.0,5.0,72,0.00,,SKC,0.00,VWS V12.07,2013-03-03 16:56:00,
2013-03-03 11:04:00,31.8,23.1,30.21,SW,215,2.0,4.0,70,0.00,,SKC,0.00,VWS V12.07,2013-03-03 17:04:00,
2013-03-03 11:10:00,32.0,22.3,30.21,SW,236,3.0,5.0,67,0.00,,SKC,0.00,VWS V12.07,2013-03-03 17:10:00,
2013-03-03 11:16:00,31.8,22.1,30.21,SSW,210,3.0,6.0,67,0.00,,SKC,0.00,VWS V12.07,2013-03-03 17:16:00,
2013-03-03 11:21:00,31.8,22.5,30.21,South,180,1.0,6.0,68,0.00,,SKC,0.00,VWS V12.07,2013-03-03 17:21:00,
2013-03-03 11:27:00,31.8,22.8,30.21,SSE,159,2.0,6.0,69,0.00,,SKC,0.00,VWS V12.07,2013-03-03 17:27:00,
2013-03-03 11:34:00,32.1,22.4,30.20,SSE,153,1.0,7.0,67,0.00,,SKC,0.00,VWS V12.07,2013-03-03 17:34:00,
2013-03-03 11:43:00,31.7,21.7,30.19,SSE,160,4.0,8.0,66,0.00,,SKC,0.00,VWS V12.07,2013-03-03 17:43:00,
2013-03-03 11:50:00,31.6,21.9,30.19,SSE,156,1.0,8.0,67,0.00,,SKC,0.00,VWS V12.07,2013-03-03 17:50:00,
2013-03-03 11:56:00,32.1,22.8,30.19,SSE,156,4.0,8.0,68,0.00,,SKC,0.00,VWS V12.07,2013-03-03 17:56:00,
2013-03-03 12:04:00,32.8,23.1,30.18,SE,129,2.0,8.0,67,0.00,,SKC,0.00,VWS V12.07,2013-03-03 18:04:00,
2013-03-03 12:13:00,33.6,23.1,30.18,SE,143,4.0,8.0,65,0.00,,SKC,0.00,VWS V12.07,2013-03-03 18:13:00,
2013-03-03 12:20:00,33.7,22.8,30.18,ESE,120,6.0,8.0,64,0.00,,SKC,0.00,VWS V12.07,2013-03-03 18:20:00,
2013-03-03 12:26:00,33.4,22.9,30.18,ESE,118,4.0,8.0,65,0.00,,SKC,0.00,VWS V12.07,2013-03-03 18:26:00,
2013-03-03 12:34:00,34.3,23.8,30.17,SW,214,1.0,6.0,65,0.00,,SKC,0.00,VWS V12.07,2013-03-03 18:34:00,
2013-03-03 12:43:00,35.7,24.4,30.17,SW,218,2.0,6.0,63,0.00,,SKC,0.00,VWS V12.07,2013-03-03 18:43:00,
2013-03-03 12:50:00,36.1,24.4,30.16,SE,137,2.0,6.0,62,0.00,,SKC,0.00,VWS V12.07,2013-03-03 18:50:00,
2013-03-03 12:56:00,35.8,22.9,30.16,ESE,116,2.0,6.0,59,0.00,,SKC,0.00,VWS V12.07,2013-03-03 18:56:00,
2013-03-03 13:01:00,35.1,23.4,30.16,SW,215,3.0,4.0,62,0.00,,SKC,0.00,VWS V12.07,2013-03-03 19:01:00,
2013-03-03 13:07:00,34.6,22.9,30.16,ESE,118,5.0,5.0,62,0.00,,SKC,0.00,VWS V12.07,2013-03-03 19:07:00,
2013-03-03 13:14:00,35.1,23.8,30.15,SSE,167,5.0,7.0,63,0.00,,SKC,0.00,VWS V12.07,2013-03-03 19:14:00,
2013-03-03 13:23:00,34.3,22.6,30.15,SSE,159,1.0,7.0,62,0.00,,SKC,0.00,VWS V12.07,2013-03-03 19:23:00,
2013-03-03 13:30:00,34.4,23.1,30.14,ESE,118,7.0,7.0,63,0.00,,SKC,0.00,VWS V12.07,2013-03-03 19:30:00,
2013-03-03 13:38:00,34.1,22.8,30.14,ESE,120,6.0,7.0,63,0.00,,SKC,0.00,VWS V12.07,2013-03-03 19:38:00,
2013-03-03 13:43:00,34.0,22.7,30.13,ESE,111,7.0,9.0,63,0.00,,SKC,0.00,VWS V12.07,2013-03-03 19:43:00,
2013-03-03 13:50:00,33.9,22.6,30.13,ESE,110,7.0,9.0,63,0.00,,SKC,0.00,VWS V12.07,2013-03-03 19:50:00,
2013-03-03 13:56:00,34.0,22.7,30.13,SE,141,4.0,9.0,63,0.00,,SKC,0.00,VWS V12.07,2013-03-03 19:56:00,
2013-03-03 14:01:00,34.2,21.8,30.12,SE,145,6.0,8.0,60,0.00,,SKC,0.00,VWS V12.07,2013-03-03 20:01:00,
2013-03-03 14:09:00,33.8,22.5,30.12,SE,136,4.0,8.0,63,0.00,,SKC,0.00,VWS V12.07,2013-03-03 20:09:00,
2013-03-03 14:16:00,33.6,22.7,30.12,ESE,107,5.0,9.0,64,0.00,,SKC,0.00,VWS V12.07,2013-03-03 20:16:00,
2013-03-03 14:24:00,33.5,22.6,30.13,SSW,198,3.0,9.0,64,0.00,,SKC,0.00,VWS V12.07,2013-03-03 20:24:00,
2013-03-03 14:33:00,33.9,22.6,30.12,SE,134,3.0,6.0,63,0.00,,SKC,0.00,VWS V12.07,2013-03-03 20:33:00,
2013-03-03 14:40:00,34.1,23.2,30.12,South,169,5.0,7.0,64,0.00,,SKC,0.00,VWS V12.07,2013-03-03 20:40:00,
2013-03-03 14:46:00,34.0,22.7,30.12,SE,135,2.0,8.0,63,0.00,,SKC,0.00,VWS V12.07,2013-03-03 20:46:00,
2013-03-03 14:54:00,34.0,23.1,30.12,SE,134,4.0,8.0,64,0.00,,SKC,0.00,VWS V12.07,2013-03-03 20:54:00,
2013-03-03 15:04:00,34.0,22.7,30.12,SE,142,4.0,6.0,63,0.00,,SKC,0.00,VWS V12.07,2013-03-03 21:04:00,
2013-03-03 15:11:00,33.9,22.6,30.12,South,174,3.0,6.0,63,0.00,,SKC,0.00,VWS V12.07,2013-03-03 21:11:00,
2013-03-03 15:16:00,33.9,23.0,30.12,SSE,158,5.0,6.0,64,0.00,,SKC,0.00,VWS V12.07,2013-03-03 21:16:00,
2013-03-03 15:24:00,33.7,23.2,30.12,ESE,120,3.0,6.0,65,0.00,,SKC,0.00,VWS V12.07,2013-03-03 21:24:00,
2013-03-03 15:30:00,33.7,22.8,30.11,SE,145,4.0,6.0,64,0.00,,SKC,0.00,VWS V12.07,2013-03-03 21:30:00,
2013-03-03 15:38:00,33.7,23.2,30.11,SSE,147,2.0,4.0,65,0.00,,SKC,0.00,VWS V12.07,2013-03-03 21:38:00,
2013-03-03 15:46:00,33.7,23.2,30.10,ESE,117,1.0,5.0,65,0.00,,SKC,0.00,VWS V12.07,2013-03-03 21:46:00,
2013-03-03 15:54:00,33.5,23.0,30.10,SE,131,3.0,6.0,65,0.00,,SKC,0.00,VWS V12.07,2013-03-03 21:54:00,
2013-03-03 16:04:00,33.5,23.4,30.09,ESE,116,5.0,8.0,66,0.00,,SKC,0.00,VWS V12.07,2013-03-03 22:04:00,
2013-03-03 16:11:00,33.6,23.8,30.09,SE,139,2.0,8.0,67,0.00,,SKC,0.00,VWS V12.07,2013-03-03 22:11:00,
2013-03-03 16:19:00,33.7,23.9,30.10,ESE,115,4.0,8.0,67,0.00,,SKC,0.00,VWS V12.07,2013-03-03 22:19:00,
2013-03-03 16:26:00,33.6,23.5,30.09,SSE,155,6.0,8.0,66,0.00,,SKC,0.00,VWS V12.07,2013-03-03 22:26:00,
2013-03-03 16:34:00,33.5,23.4,30.09,SE,139,4.0,7.0,66,0.00,,SKC,0.00,VWS V12.07,2013-03-03 22:34:00,
2013-03-03 16:43:00,33.4,23.3,30.09,SSE,153,6.0,8.0,66,0.00,,SKC,0.00,VWS V12.07,2013-03-03 22:43:00,
2013-03-03 16:51:00,33.4,23.3,30.09,SE,135,5.0,8.0,66,0.00,,SKC,0.00,VWS V12.07,2013-03-03 22:51:00,
2013-03-03 16:58:00,33.3,23.2,30.09,SE,139,3.0,8.0,66,0.00,,SKC,0.00,VWS V12.07,2013-03-03 22:58:00,
2013-03-03 17:04:00,33.2,23.1,30.09,SE,126,4.0,7.0,66,0.00,,SKC,0.00,VWS V12.07,2013-03-03 23:04:00,
2013-03-03 17:11:00,33.2,23.5,30.09,SSE,162,3.0,7.0,67,0.00,,SKC,0.00,VWS V12.07,2013-03-03 23:11:00,
2013-03-03 17:17:00,33.1,23.4,30.10,SE,141,2.0,8.0,67,0.00,,SKC,0.00,VWS V12.07,2013-03-03 23:17:00,
2013-03-03 17:24:00,33.0,23.6,30.10,ESE,120,5.0,8.0,68,0.00,,SKC,0.00,VWS V12.07,2013-03-03 23:24:00,
2013-03-03 17:33:00,32.8,23.4,30.09,SSE,158,2.0,7.0,68,0.00,,SKC,0.00,VWS V12.07,2013-03-03 23:33:00,
2013-03-03 17:40:00,32.8,23.8,30.09,ESE,117,4.0,8.0,69,0.00,,SKC,0.00,VWS V12.07,2013-03-03 23:40:00,
2013-03-03 17:49:00,32.7,23.7,30.09,SE,136,4.0,9.0,69,0.00,,SKC,0.00,VWS V12.07,2013-03-03 23:49:00,
2013-03-03 17:54:00,32.7,23.7,30.08,SE,134,4.0,9.0,69,0.00,,SKC,0.00,VWS V12.07,2013-03-03 23:54:00,
2013-03-03 18:01:00,32.7,23.7,30.08,ESE,122,3.0,4.0,69,0.00,,SKC,0.00,VWS V12.07,2013-03-04 00:01:00,
2013-03-03 18:08:00,32.5,23.5,30.08,SE,133,5.0,8.0,69,0.00,,SKC,0.00,VWS V12.07,2013-03-04 00:08:00,
2013-03-03 18:14:00,32.5,23.5,30.08,ESE,108,5.0,8.0,69,0.00,,SKC,0.00,VWS V12.07,2013-03-04 00:14:00,
2013-03-03 18:20:00,32.5,23.5,30.07,SE,139,6.0,8.0,69,0.00,,SKC,0.00,VWS V12.07,2013-03-04 00:20:00,
2013-03-03 18:29:00,32.5,23.1,30.07,SE,128,4.0,9.0,68,0.00,,SKC,0.00,VWS V12.07,2013-03-04 00:29:00,
2013-03-03 18:36:00,32.5,23.5,30.08,SE,132,5.0,9.0,69,0.00,,SKC,0.00,VWS V12.07,2013-03-04 00:36:00,
2013-03-03 18:44:00,32.5,22.8,30.08,ESE,118,3.0,9.0,67,0.00,,SKC,0.00,VWS V12.07,2013-03-04 00:44:00,
2013-03-03 18:53:00,32.5,22.4,30.08,SE,133,6.0,9.0,66,0.00,,SKC,0.00,VWS V12.07,2013-03-04 00:53:00,
2013-03-03 19:01:00,32.5,22.1,30.08,ESE,120,7.0,9.0,65,0.00,,SKC,0.00,VWS V12.07,2013-03-04 01:01:00,
2013-03-03 19:08:00,32.6,22.1,30.08,South,173,4.0,9.0,65,0.00,,SKC,0.00,VWS V12.07,2013-03-04 01:08:00,
2013-03-03 19:14:00,32.7,22.2,30.08,ESE,122,4.0,9.0,65,0.00,,SKC,0.00,VWS V12.07,2013-03-04 01:14:00,
2013-03-03 19:21:00,32.8,22.3,30.08,SSE,164,3.0,9.0,65,0.00,,SKC,0.00,VWS V12.07,2013-03-04 01:21:00,
2013-03-03 19:29:00,32.7,22.6,30.08,East,90,6.0,9.0,66,0.00,,SKC,0.00,VWS V12.07,2013-03-04 01:29:00,
2013-03-03 19:34:00,32.7,22.6,30.07,ESE,115,8.0,8.0,66,0.00,,SKC,0.00,VWS V12.07,2013-03-04 01:34:00,
2013-03-03 19:41:00,32.7,22.6,30.07,SE,141,3.0,9.0,66,0.00,,SKC,0.00,VWS V12.07,2013-03-04 01:41:00,
2013-03-03 19:49:00,32.7,23.0,30.07,ESE,102,6.0,9.0,67,0.00,,SKC,0.00,VWS V12.07,2013-03-04 01:49:00,
2013-03-03 19:56:00,32.7,23.0,30.07,SE,134,4.0,11.0,67,0.00,,SKC,0.00,VWS V12.07,2013-03-04 01:56:00,
2013-03-03 20:05:00,32.7,23.3,30.06,ESE,115,5.0,10.0,68,0.00,,SKC,0.00,VWS V12.07,2013-03-04 02:05:00,
2013-03-03 20:13:00,32.5,23.5,30.06,SE,136,4.0,10.0,69,0.00,,SKC,0.00,VWS V12.07,2013-03-04 02:13:00,
2013-03-03 20:21:00,32.5,23.5,30.06,ESE,113,7.0,11.0,69,0.00,,SKC,0.00,VWS V12.07,2013-03-04 02:21:00,
2013-03-03 20:26:00,32.5,23.5,30.06,ESE,118,6.0,11.0,69,0.00,,SKC,0.00,VWS V12.07,2013-03-04 02:26:00,
2013-03-03 20:35:00,32.4,23.4,30.06,ESE,108,4.0,10.0,69,0.00,,SKC,0.00,VWS V12.07,2013-03-04 02:35:00,
2013-03-03 20:44:00,32.4,23.0,30.07,SE,125,8.0,10.0,68,0.00,,SKC,0.00,VWS V12.07,2013-03-04 02:44:00,
2013-03-03 20:51:00,32.4,23.0,30.06,ESE,118,6.0,10.0,68,0.00,,SKC,0.00,VWS V12.07,2013-03-04 02:51:00,
2013-03-03 20:58:00,32.2,23.2,30.07,SE,141,4.0,10.0,69,0.00,,SKC,0.00,VWS V12.07,2013-03-04 02:58:00,
2013-03-03 21:04:00,32.3,23.3,30.06,SE,132,5.0,11.0,69,0.00,,SKC,0.00,VWS V12.07,2013-03-04 03:04:00,
2013-03-03 21:10:00,32.3,23.3,30.07,SE,128,4.0,11.0,69,0.00,,SKC,0.00,VWS V12.07,2013-03-04 03:10:00,
2013-03-03 21:19:00,32.4,23.4,30.07,SE,125,5.0,11.0,69,0.00,,SKC,0.00,VWS V12.07,2013-03-04 03:19:00,
2013-03-03 21:24:00,32.4,23.4,30.07,SE,141,5.0,11.0,69,0.00,,SKC,0.00,VWS V12.07,2013-03-04 03:24:00,
2013-03-03 21:31:00,32.5,23.5,30.07,ESE,118,6.0,7.0,69,0.00,,SKC,0.00,VWS V12.07,2013-03-04 03:31:00,
2013-03-03 21:39:00,32.5,23.8,30.07,SE,131,5.0,10.0,70,0.00,,SKC,0.00,VWS V12.07,2013-03-04 03:39:00,
2013-03-03 21:44:00,32.6,23.9,30.07,SE,131,5.0,10.0,70,0.00,,SKC,0.00,VWS V12.07,2013-03-04 03:44:00,
2013-03-03 21:51:00,32.5,23.8,30.07,ESE,115,6.0,10.0,70,0.00,,SKC,0.00,VWS V12.07,2013-03-04 03:51:00,
2013-03-03 21:59:00,32.6,23.9,30.07,ESE,115,10.0,11.0,70,0.00,,SKC,0.00,VWS V12.07,2013-03-04 03:59:00,
2013-03-03 22:04:00,32.6,23.9,30.07,SE,134,6.0,10.0,70,0.00,,SKC,0.00,VWS V12.07,2013-03-04 04:04:00,
2013-03-03 22:11:00,32.5,24.2,30.07,SE,131,4.0,10.0,71,0.00,,SKC,0.00,VWS V12.07,2013-03-04 04:11:00,
2013-03-03 22:19:00,32.5,24.2,30.06,SE,136,7.0,12.0,71,0.00,,SKC,0.00,VWS V12.07,2013-03-04 04:19:00,
2013-03-03 22:27:00,32.5,24.2,30.07,SE,131,5.0,12.0,71,0.00,,SKC,0.00,VWS V12.07,2013-03-04 04:27:00,
2013-03-03 22:34:00,32.7,24.4,30.06,SE,139,6.0,10.0,71,0.00,,SKC,0.00,VWS V12.07,2013-03-04 04:34:00,
2013-03-03 22:41:00,32.8,24.5,30.07,SE,141,7.0,10.0,71,0.00,,SKC,0.00,VWS V12.07,2013-03-04 04:41:00,
2013-03-03 22:49:00,33.0,24.3,30.07,SE,129,6.0,10.0,70,0.00,,SKC,0.00,VWS V12.07,2013-03-04 04:49:00,
2013-03-03 22:56:00,33.2,24.5,30.06,SSE,147,7.0,11.0,70,0.00,,SKC,0.00,VWS V12.07,2013-03-04 04:56:00,
2013-03-03 23:00:00,33.3,24.6,30.07,SSW,194,6.0,6.0,70,0.00,,SKC,0.00,VWS V12.07,2013-03-04 05:00:00,
2013-03-03 23:01:00,33.3,24.6,30.07,SE,139,6.0,11.0,70,0.00,,SKC,0.00,VWS V12.07,2013-03-04 05:01:00,
2013-03-03 23:05:00,33.4,24.3,30.07,East,92,5.0,12.0,69,0.00,,SKC,0.00,VWS V12.07,2013-03-04 05:05:00,
2013-03-03 23:14:00,33.5,24.4,30.06,SE,125,5.0,12.0,69,0.00,,SKC,0.00,VWS V12.07,2013-03-04 05:14:00,
2013-03-03 23:20:00,33.6,24.9,30.06,SE,127,5.0,12.0,70,0.00,,SKC,0.00,VWS V12.07,2013-03-04 05:20:00,
2013-03-03 23:28:00,33.7,25.0,30.06,SE,129,8.0,13.0,70,0.00,,SKC,0.00,VWS V12.07,2013-03-04 05:28:00,
2013-03-03 23:33:00,33.7,25.0,30.06,East,101,6.0,12.0,70,0.00,,SKC,0.00,VWS V12.07,2013-03-04 05:33:00,
2013-03-03 23:40:00,33.8,25.1,30.06,SSE,158,4.0,12.0,70,0.00,,SKC,0.00,VWS V12.07,2013-03-04 05:40:00,
2013-03-03 23:46:00,33.8,25.1,30.06,SE,139,7.0,12.0,70,0.00,,SKC,0.00,VWS V12.07,2013-03-04 05:46:00,
2013-03-03 23:51:00,33.8,25.1,30.06,SE,141,6.0,12.0,70,0.00,,SKC,0.00,VWS V12.07,2013-03-04 05:51:00,
2013-03-03 23:57:00,33.8,25.4,30.06,SE,134,6.0,12.0,71,0.00,,SKC,0.00,VWS V12.07,2013-03-04 05:57:00,